UZB568 UZTT-UAAA

Flight info

Callsign UZB568
Flight time 0h 57m
Altitude 39000
Route TISIB1A TISIB L143 SULET DCT UMLOD DCT BINRI DCT TIPSA TIPSA1X
Aircraft B789/H-SDE1E2E3FGHIJ2J3J4J5M1RWXY/LB1D1

Departure

Time 2026-04-26 19:50
Airport Tashkent International Airport (UZTT)

Arrival

Time 2026-04-26 20:47
Airport Almaty International Airport (UAAA)
Time Latitude Longitude Altitude Speed Heading
2026-04-26 19:02 41.26172 69.27351 1410 ft 0 kts 330°
2026-04-26 19:41 41.26174 69.27348 1411 ft 1 kts 324°
2026-04-26 19:41 41.26178 69.27335 1410 ft 2 kts 277°
2026-04-26 19:41 41.26171 69.27315 1404 ft 7 kts 245°
2026-04-26 19:42 41.26114 69.27213 1405 ft 6 kts 180°
2026-04-26 19:42 41.26075 69.27245 1409 ft 9 kts 113°
2026-04-26 19:42 41.26077 69.27361 1403 ft 16 kts 81°
2026-04-26 19:42 41.26095 69.27522 1407 ft 17 kts 81°
2026-04-26 19:43 41.26113 69.27673 1408 ft 16 kts 81°
2026-04-26 19:43 41.26128 69.27808 1406 ft 14 kts 81°
2026-04-26 19:43 41.26140 69.27929 1410 ft 12 kts 82°
2026-04-26 19:43 41.26152 69.28036 1412 ft 11 kts 81°
2026-04-26 19:44 41.26164 69.28137 1407 ft 12 kts 81°
2026-04-26 19:44 41.26175 69.28243 1405 ft 14 kts 82°
2026-04-26 19:44 41.26190 69.28384 1408 ft 15 kts 84°
2026-04-26 19:44 41.26187 69.28517 1407 ft 14 kts 93°
2026-04-26 19:45 41.26182 69.28637 1413 ft 12 kts 92°
2026-04-26 19:45 41.26179 69.28744 1408 ft 11 kts 92°
2026-04-26 19:45 41.26182 69.28833 1415 ft 10 kts 88°
2026-04-26 19:45 41.26187 69.28953 1409 ft 19 kts 86°
2026-04-26 19:46 41.26196 69.29135 1417 ft 19 kts 86°
2026-04-26 19:46 41.26204 69.29312 1411 ft 19 kts 85°
2026-04-26 19:46 41.26214 69.29477 1413 ft 16 kts 88°
2026-04-26 19:46 41.26220 69.29677 1419 ft 26 kts 88°
2026-04-26 19:47 41.26225 69.29872 1416 ft 20 kts 88°
2026-04-26 19:47 41.26222 69.29969 1422 ft 14 kts 109°
2026-04-26 19:47 41.26195 69.30013 1423 ft 0 kts 141°
2026-04-26 19:48 41.26191 69.30017 1422 ft 4 kts 141°
2026-04-26 19:48 41.26142 69.30067 1422 ft 13 kts 145°
2026-04-26 19:49 41.26067 69.30052 1427 ft 12 kts 238°
2026-04-26 19:49 41.26044 69.29905 1423 ft 28 kts 262°
2026-04-26 19:49 41.25980 69.29330 1423 ft 98 kts 262°
2026-04-26 19:49 41.25850 69.28141 1415 ft 159 kts 262°
2026-04-26 19:50 41.25659 69.26539 1716 ft 179 kts 261°
2026-04-26 19:50 41.25437 69.24928 2400 ft 177 kts 264°
2026-04-26 19:50 41.25227 69.23302 2939 ft 176 kts 265°
2026-04-26 19:50 41.24712 69.21935 3490 ft 173 kts 216°
2026-04-26 19:51 41.23555 69.21571 3862 ft 168 kts 175°
2026-04-26 19:51 41.22447 69.21935 4329 ft 169 kts 144°
2026-04-26 19:51 41.21677 69.23098 4749 ft 173 kts 122°
2026-04-26 19:51 41.21475 69.24707 5067 ft 180 kts 91°
2026-04-26 19:52 41.21339 69.26411 5420 ft 194 kts 103°
2026-04-26 19:52 41.21070 69.28340 5578 ft 231 kts 101°
2026-04-26 19:52 41.20814 69.30522 5938 ft 247 kts 100°
2026-04-26 19:52 41.20564 69.32806 6386 ft 258 kts 100°
2026-04-26 19:53 41.20312 69.35071 7747 ft 245 kts 100°
2026-04-26 19:53 41.20044 69.37416 8493 ft 264 kts 100°
2026-04-26 19:53 41.19766 69.39848 9580 ft 270 kts 101°
2026-04-26 19:53 41.19481 69.42336 10594 ft 275 kts 100°
2026-04-26 19:54 41.19192 69.44875 11589 ft 280 kts 100°
2026-04-26 19:54 41.18897 69.47458 12611 ft 285 kts 101°
2026-04-26 19:54 41.18595 69.50080 13647 ft 289 kts 101°
2026-04-26 19:54 41.18290 69.52733 14628 ft 293 kts 101°
2026-04-26 19:55 41.17981 69.55417 15600 ft 295 kts 101°
2026-04-26 19:55 41.17669 69.58119 16574 ft 297 kts 101°
2026-04-26 19:55 41.17355 69.60832 17576 ft 297 kts 101°
2026-04-26 19:55 41.17039 69.63550 18479 ft 302 kts 101°
2026-04-26 19:56 41.16715 69.66335 19157 ft 309 kts 101°
2026-04-26 19:56 41.16383 69.69185 19862 ft 316 kts 101°
2026-04-26 19:56 41.16159 69.71103 20340 ft 319 kts 101°
2026-04-26 19:56 41.15815 69.74042 21077 ft 325 kts 101°
2026-04-26 19:57 41.15465 69.77027 21826 ft 329 kts 101°
2026-04-26 19:57 41.15104 69.80096 22169 ft 348 kts 101°
2026-04-26 19:57 41.14724 69.83311 22715 ft 357 kts 101°
2026-04-26 19:57 41.14338 69.86598 23335 ft 363 kts 101°
2026-04-26 19:58 41.13945 69.89928 23944 ft 368 kts 101°
2026-04-26 19:58 41.13545 69.93300 24529 ft 372 kts 101°
2026-04-26 19:58 41.13138 69.96714 25119 ft 376 kts 101°
2026-04-26 19:58 41.12732 70.00119 25691 ft 380 kts 101°
2026-04-26 19:59 41.12317 70.03590 26281 ft 383 kts 101°
2026-04-26 19:59 41.11896 70.07097 26855 ft 387 kts 101°
2026-04-26 19:59 41.11470 70.10640 27412 ft 391 kts 101°
2026-04-26 19:59 41.11039 70.14216 28002 ft 395 kts 101°
2026-04-26 20:00 41.10602 70.17831 28574 ft 399 kts 101°
2026-04-26 20:00 41.10228 70.21490 29137 ft 404 kts 91°
2026-04-26 20:00 41.10552 70.25200 29738 ft 409 kts 73°
2026-04-26 20:00 41.11661 70.28692 30292 ft 413 kts 63°
2026-04-26 20:01 41.13002 70.32040 30690 ft 418 kts 61°
2026-04-26 20:01 41.14432 70.35429 31128 ft 422 kts 61°
2026-04-26 20:01 41.15851 70.38864 31567 ft 426 kts 62°
2026-04-26 20:01 41.17247 70.42352 32041 ft 429 kts 62°
2026-04-26 20:02 41.18661 70.45872 32482 ft 433 kts 61°
2026-04-26 20:02 41.20102 70.49405 32939 ft 437 kts 61°
2026-04-26 20:02 41.21552 70.52964 33402 ft 440 kts 61°
2026-04-26 20:02 41.22513 70.55342 33684 ft 443 kts 61°
2026-04-26 20:03 41.24471 70.60206 34240 ft 448 kts 61°
2026-04-26 20:03 41.25951 70.63871 34616 ft 452 kts 60°
2026-04-26 20:03 41.27442 70.67566 34990 ft 455 kts 60°
2026-04-26 20:03 41.28943 70.71294 35373 ft 458 kts 60°
2026-04-26 20:04 41.30449 70.75043 35763 ft 461 kts 60°
2026-04-26 20:04 41.31963 70.78817 36156 ft 464 kts 60°
2026-04-26 20:04 41.33490 70.82623 36474 ft 468 kts 60°
2026-04-26 20:04 41.35025 70.86456 36741 ft 470 kts 60°
2026-04-26 20:05 41.36565 70.90310 37097 ft 472 kts 60°
2026-04-26 20:05 41.38122 70.94204 37144 ft 484 kts 60°
2026-04-26 20:05 41.39719 70.98204 37170 ft 495 kts 60°
2026-04-26 20:05 41.41350 71.02299 37170 ft 507 kts 60°
2026-04-26 20:06 41.44699 71.10723 37191 ft 529 kts 60°
2026-04-26 20:06 41.46440 71.15111 37191 ft 541 kts 60°
2026-04-26 20:06 41.48214 71.19593 37194 ft 551 kts 60°
2026-04-26 20:07 41.51766 71.28651 37175 ft 548 kts 61°
2026-04-26 20:07 41.55296 71.37734 37168 ft 552 kts 60°
2026-04-26 20:08 41.58784 71.46699 37160 ft 538 kts 61°
2026-04-26 20:08 41.62245 71.55641 37162 ft 542 kts 61°
2026-04-26 20:09 41.65705 71.64601 37160 ft 544 kts 61°
2026-04-26 20:09 41.69164 71.73590 37160 ft 543 kts 61°
2026-04-26 20:10 41.72594 71.82526 37162 ft 543 kts 61°
2026-04-26 20:10 41.76041 71.91539 37190 ft 544 kts 61°
2026-04-26 20:11 41.79477 72.00549 37187 ft 543 kts 62°
2026-04-26 20:12 41.84621 72.14090 37186 ft 543 kts 62°
2026-04-26 20:12 41.88036 72.23119 37194 ft 544 kts 62°
2026-04-26 20:13 41.91423 72.32097 37207 ft 539 kts 62°
2026-04-26 20:13 41.94816 72.41121 37192 ft 540 kts 62°
2026-04-26 20:14 41.98194 72.50133 37190 ft 541 kts 62°
2026-04-26 20:14 42.01567 72.59161 37195 ft 539 kts 62°
2026-04-26 20:15 42.04930 72.68192 37203 ft 541 kts 62°
2026-04-26 20:15 42.08295 72.77254 37201 ft 540 kts 62°
2026-04-26 20:16 42.11626 72.86256 37199 ft 540 kts 62°
2026-04-26 20:16 42.14967 72.95312 37235 ft 541 kts 62°
2026-04-26 20:17 42.18316 73.04418 37223 ft 540 kts 62°
2026-04-26 20:17 42.21659 73.13524 37221 ft 542 kts 62°
2026-04-26 20:18 42.25115 73.22586 37235 ft 546 kts 62°
2026-04-26 20:18 42.28571 73.31832 37238 ft 553 kts 62°
2026-04-26 20:19 42.32010 73.40998 37223 ft 540 kts 62°
2026-04-26 20:19 42.35377 73.50010 37241 ft 544 kts 62°
2026-04-26 20:20 42.38794 73.59124 37236 ft 541 kts 57°
2026-04-26 20:20 42.40935 73.63283 37256 ft 538 kts 46°
2026-04-26 20:20 42.43524 73.66912 37225 ft 535 kts 42°
2026-04-26 20:21 42.48837 73.73954 37238 ft 534 kts 42°
2026-04-26 20:21 42.54122 73.81010 37224 ft 533 kts 42°
2026-04-26 20:22 42.59425 73.88096 37219 ft 534 kts 42°
2026-04-26 20:22 42.64680 73.95139 37206 ft 534 kts 42°
2026-04-26 20:23 42.69962 74.02237 37212 ft 533 kts 42°
2026-04-26 20:23 42.75225 74.09324 37194 ft 532 kts 43°
2026-04-26 20:24 42.80485 74.16428 37175 ft 533 kts 43°
2026-04-26 20:24 42.85741 74.23542 37175 ft 533 kts 43°
2026-04-26 20:25 42.90992 74.30669 37163 ft 533 kts 43°
2026-04-26 20:25 42.96241 74.37811 37167 ft 533 kts 43°
2026-04-26 20:26 43.01483 74.44963 37158 ft 532 kts 43°
2026-04-26 20:26 43.06678 74.52179 37164 ft 534 kts 49°
2026-04-26 20:27 43.11067 74.60425 37169 ft 536 kts 54°
2026-04-26 20:27 43.15340 74.68794 37163 ft 536 kts 53°
2026-04-26 20:28 43.19575 74.77136 37163 ft 537 kts 54°
2026-04-26 20:28 43.23827 74.85563 37150 ft 538 kts 53°
2026-04-26 20:29 43.28092 74.93994 37148 ft 537 kts 54°
2026-04-26 20:29 43.32335 75.02451 37151 ft 537 kts 54°
2026-04-26 20:30 43.36574 75.10882 37137 ft 536 kts 52°
2026-04-26 20:30 43.41408 75.18649 37143 ft 534 kts 46°
2026-04-26 20:31 43.46355 75.26274 36948 ft 535 kts 46°
2026-04-26 20:31 43.48834 75.30114 36431 ft 538 kts 46°
2026-04-26 20:31 43.51300 75.33934 35887 ft 528 kts 46°
2026-04-26 20:31 43.53712 75.37673 35330 ft 515 kts 46°
2026-04-26 20:32 43.56041 75.41286 34739 ft 506 kts 47°
2026-04-26 20:32 43.58356 75.44883 34107 ft 497 kts 47°
2026-04-26 20:32 43.60463 75.48631 33432 ft 489 kts 59°
2026-04-26 20:32 43.61981 75.52784 32805 ft 481 kts 70°
2026-04-26 20:33 43.62890 75.57175 32097 ft 473 kts 82°
2026-04-26 20:33 43.63188 75.61654 31390 ft 466 kts 93°
2026-04-26 20:33 43.63038 75.66082 30680 ft 459 kts 95°
2026-04-26 20:33 43.62855 75.70463 29885 ft 456 kts 95°
2026-04-26 20:34 43.62658 75.74817 29011 ft 452 kts 95°
2026-04-26 20:34 43.62466 75.79131 28168 ft 449 kts 95°
2026-04-26 20:34 43.62282 75.83410 27354 ft 445 kts 95°
2026-04-26 20:34 43.62096 75.87656 26560 ft 440 kts 95°
2026-04-26 20:35 43.61906 75.91866 25705 ft 438 kts 95°
2026-04-26 20:35 43.61718 75.95989 24900 ft 435 kts 95°
2026-04-26 20:35 43.61530 76.00138 24107 ft 431 kts 95°
2026-04-26 20:35 43.61342 76.04263 23262 ft 428 kts 95°
2026-04-26 20:36 43.61153 76.08339 22347 ft 424 kts 95°
2026-04-26 20:36 43.60965 76.12371 21468 ft 419 kts 95°
2026-04-26 20:36 43.60778 76.16364 20603 ft 415 kts 95°
2026-04-26 20:36 43.60591 76.20313 19768 ft 410 kts 95°
2026-04-26 20:37 43.60404 76.24223 18955 ft 405 kts 96°
2026-04-26 20:37 43.59910 76.27992 18137 ft 395 kts 111°
2026-04-26 20:37 43.58737 76.31365 17267 ft 386 kts 126°
2026-04-26 20:37 43.57006 76.34131 16422 ft 377 kts 141°
2026-04-26 20:38 43.54872 76.36144 15599 ft 368 kts 155°
2026-04-26 20:38 43.52607 76.37725 14775 ft 363 kts 155°
2026-04-26 20:38 43.50363 76.39265 13965 ft 359 kts 155°
2026-04-26 20:38 43.48142 76.40778 13225 ft 352 kts 155°
2026-04-26 20:39 43.45970 76.42271 12462 ft 345 kts 155°
2026-04-26 20:39 43.44555 76.43247 11977 ft 341 kts 155°
2026-04-26 20:39 43.41767 76.45163 10996 ft 334 kts 154°
2026-04-26 20:39 43.39875 76.46918 10341 ft 326 kts 135°
2026-04-26 20:40 43.38269 76.49074 9651 ft 319 kts 137°
2026-04-26 20:40 43.36648 76.51134 8916 ft 316 kts 137°
2026-04-26 20:40 43.35057 76.53195 8207 ft 313 kts 136°
2026-04-26 20:40 43.33490 76.55263 7530 ft 311 kts 136°
2026-04-26 20:41 43.31953 76.57280 7223 ft 296 kts 136°
2026-04-26 20:41 43.30502 76.59170 7031 ft 278 kts 136°
2026-04-26 20:41 43.29131 76.60955 6843 ft 268 kts 136°
2026-04-26 20:41 43.27783 76.62713 6665 ft 267 kts 136°
2026-04-26 20:42 43.26553 76.64586 6459 ft 265 kts 114°
2026-04-26 20:42 43.26014 76.66977 6428 ft 264 kts 103°
2026-04-26 20:42 43.25573 76.69426 6427 ft 263 kts 101°
2026-04-26 20:42 43.25180 76.71879 6415 ft 264 kts 101°
2026-04-26 20:43 43.24792 76.74270 6414 ft 258 kts 102°
2026-04-26 20:43 43.24389 76.76682 6414 ft 263 kts 102°
2026-04-26 20:43 43.24005 76.79287 6097 ft 285 kts 92°
2026-04-26 20:43 43.24375 76.81929 5778 ft 284 kts 65°
2026-04-26 20:44 43.25421 76.84161 5585 ft 273 kts 53°
2026-04-26 20:44 43.26616 76.86128 5320 ft 263 kts 52°
2026-04-26 20:44 43.27306 76.87438 5114 ft 249 kts 54°
2026-04-26 20:44 43.28244 76.89342 4536 ft 233 kts 53°
2026-04-26 20:45 43.29123 76.91129 4174 ft 220 kts 53°
2026-04-26 20:45 43.29936 76.92788 3888 ft 199 kts 52°
2026-04-26 20:45 43.30683 76.94304 3634 ft 190 kts 51°
2026-04-26 20:45 43.31435 76.95809 3403 ft 190 kts 53°
2026-04-26 20:46 43.32422 76.97804 3072 ft 189 kts 53°
2026-04-26 20:46 43.32908 76.98786 2902 ft 182 kts 55°
2026-04-26 20:46 43.33610 77.00246 2679 ft 177 kts 56°
2026-04-26 20:46 43.34288 77.01618 2430 ft 175 kts 56°
2026-04-26 20:47 43.34963 77.02987 2239 ft 163 kts 56°
2026-04-26 20:47 43.35325 77.03720 2238 ft 110 kts 56°
2026-04-26 20:47 43.35677 77.04412 2240 ft 35 kts 56°
2026-04-26 20:47 43.35761 77.04587 2240 ft 19 kts 56°
2026-04-26 20:48 43.35840 77.04748 2239 ft 25 kts 56°
2026-04-26 20:48 43.35947 77.04964 2239 ft 27 kts 56°
2026-04-26 20:48 43.36049 77.05173 2240 ft 25 kts 56°
2026-04-26 20:48 43.36143 77.05361 2241 ft 23 kts 56°
2026-04-26 20:49 43.36226 77.05527 2243 ft 18 kts 55°
2026-04-26 20:49 43.36300 77.05677 2242 ft 20 kts 56°
2026-04-26 20:49 43.36379 77.05835 2242 ft 20 kts 56°
2026-04-26 20:49 43.36460 77.06000 2240 ft 21 kts 56°
2026-04-26 20:50 43.36458 77.06161 2243 ft 16 kts 134°
2026-04-26 20:50 43.36378 77.06193 2244 ft 12 kts 188°
2026-04-26 20:50 43.36309 77.06140 2244 ft 10 kts 227°
2026-04-26 20:50 43.36255 77.06038 2245 ft 18 kts 236°
2026-04-26 20:51 43.36161 77.05847 2246 ft 30 kts 236°
2026-04-26 20:51 43.36046 77.05617 2245 ft 29 kts 236°
2026-04-26 20:51 43.35935 77.05393 2243 ft 28 kts 236°
2026-04-26 20:51 43.35827 77.05176 2241 ft 27 kts 236°
2026-04-26 20:52 43.35725 77.04971 2240 ft 25 kts 235°
2026-04-26 20:52 43.35631 77.04785 2242 ft 23 kts 235°
2026-04-26 20:52 43.35544 77.04612 2242 ft 21 kts 235°
2026-04-26 20:52 43.35461 77.04444 2241 ft 22 kts 237°
2026-04-26 20:53 43.35378 77.04272 2240 ft 21 kts 236°
2026-04-26 20:53 43.35293 77.04106 2238 ft 22 kts 236°
2026-04-26 20:53 43.35205 77.03928 2239 ft 26 kts 236°
2026-04-26 20:53 43.35093 77.03700 2240 ft 30 kts 235°
2026-04-26 20:54 43.34975 77.03465 2239 ft 30 kts 236°
2026-04-26 20:54 43.34862 77.03234 2237 ft 28 kts 239°
2026-04-26 20:54 43.34791 77.03030 2237 ft 21 kts 255°
2026-04-26 20:54 43.34779 77.02841 2236 ft 19 kts 267°
2026-04-26 20:55 43.34774 77.02662 2237 ft 18 kts 268°
2026-04-26 20:55 43.34777 77.02510 2238 ft 13 kts 281°
2026-04-26 20:55 43.34783 77.02378 2237 ft 18 kts 271°
2026-04-26 20:55 43.34786 77.02208 2237 ft 17 kts 271°
2026-04-26 20:56 43.34790 77.02049 2237 ft 16 kts 273°
2026-04-26 20:56 43.34799 77.01904 2237 ft 12 kts 275°
2026-04-26 20:56 43.34766 77.01839 2237 ft 10 kts 200°
2026-04-26 20:56 43.34719 77.01831 2237 ft 0 kts 182°